When you browse on this site, cookies collect data to enhance your experience and personalize the content and advertising you see.
Visit our Privacy Policy to learn more. By continuing to use the site, you agree to this use of cookies and data.
  • In Deutschland
  • Länderverzeichnis
  • Für 7 Tage
  • Wassertemperatur
  • Wetterkarte
  • Widgets
  • user-avatar
    Anmelden

    Stündliche Wetter Julara

    Heute, 7 Juni, Sonntag

    Zeit Temperatur Niederschläge Wind Luftdruck Luftfeuchtigkeit
    00:00 +7°C° 0 mm 5 m/S 722 mmHg 38%
    01:00 +7°C° 0 mm 5 m/S 722 mmHg 40%
    02:00 +6°C° 0 mm 5 m/S 722 mmHg 42%
    03:00 +6°C° 0 mm 5 m/S 722 mmHg 44%
    04:00 +6°C° 0 mm 5 m/S 722 mmHg 47%
    05:00 +5°C° 0 mm 5 m/S 722 mmHg 51%
    06:00 +5°C° 0 mm 5 m/S 722 mmHg 54%
    07:00 +6°C° 0 mm 5 m/S 722 mmHg 55%
    08:00 +8°C° 0 mm 6 m/S 723 mmHg 55%
    09:00 +10°C° 0 mm 7 m/S 723 mmHg 56%
    10:00 +12°C° 0 mm 7 m/S 722 mmHg 48%
    11:00 +15°C° 0 mm 7 m/S 722 mmHg 40%
    12:00 +18°C° 0 mm 7 m/S 722 mmHg 32%
    13:00 +18°C° 0 mm 7 m/S 721 mmHg 29%
    14:00 +20°C° 0 mm 7 m/S 721 mmHg 27%
    15:00 +21°C° 0 mm 6 m/S 720 mmHg 24%
    16:00 +19°C° 0 mm 6 m/S 720 mmHg 29%
    17:00 +16°C° 0 mm 5 m/S 720 mmHg 34%
    18:00 +14°C° 0 mm 4 m/S 721 mmHg 38%
    19:00 +13°C° 0 mm 4 m/S 721 mmHg 41%
    20:00 +12°C° 0 mm 5 m/S 722 mmHg 44%
    21:00 +9°C° 0 mm 5 m/S 722 mmHg 47%
    22:00 +9°C° 0 mm 5 m/S 722 mmHg 51%
    23:00 +8°C° 0 mm 5 m/S 722 mmHg 55%

    Morgen, 8 Juni, Montag

    Zeit Temperatur Niederschläge Wind Luftdruck Luftfeuchtigkeit
    00:00 +7°C° 0 mm 5 m/S 722 mmHg 58%
    01:00 +6°C° 0 mm 5 m/S 722 mmHg 62%
    02:00 +6°C° 0 mm 5 m/S 722 mmHg 65%
    03:00 +5°C° 0 mm 5 m/S 722 mmHg 69%
    04:00 +5°C° 0 mm 5 m/S 722 mmHg 70%
    05:00 +3°C° 0 mm 5 m/S 722 mmHg 72%
    06:00 +3°C° 0 mm 5 m/S 723 mmHg 73%
    07:00 +5°C° 0 mm 5 m/S 723 mmHg 67%
    08:00 +7°C° 0 mm 5 m/S 723 mmHg 61%
    09:00 +9°C° 0 mm 6 m/S 724 mmHg 54%
    10:00 +11°C° 0 mm 6 m/S 723 mmHg 46%
    11:00 +14°C° 0 mm 6 m/S 723 mmHg 38%
    12:00 +17°C° 0 mm 5 m/S 723 mmHg 30%
    13:00 +19°C° 0 mm 5 m/S 722 mmHg 27%
    14:00 +20°C° 0 mm 5 m/S 722 mmHg 24%
    15:00 +21°C° 0 mm 5 m/S 721 mmHg 21%
    16:00 +19°C° 0 mm 5 m/S 721 mmHg 25%
    17:00 +15°C° 0 mm 4 m/S 721 mmHg 29%
    18:00 +13°C° 0 mm 4 m/S 721 mmHg 33%
    19:00 +12°C° 0 mm 4 m/S 722 mmHg 36%
    20:00 +11°C° 0 mm 4 m/S 722 mmHg 39%
    21:00 +9°C° 0 mm 5 m/S 722 mmHg 41%
    22:00 +8°C° 0 mm 4 m/S 723 mmHg 44%
    23:00 +8°C° 0 mm 4 m/S 723 mmHg 46%

    übermorgen, 9 Juni, Dienstag

    Zeit Temperatur Niederschläge Wind Luftdruck Luftfeuchtigkeit
    00:00 +7°C° 0 mm 4 m/S 723 mmHg 49%
    01:00 +6°C° 0 mm 4 m/S 723 mmHg 51%
    02:00 +6°C° 0 mm 4 m/S 723 mmHg 54%
    03:00 +5°C° 0 mm 3 m/S 723 mmHg 57%
    04:00 +5°C° 0 mm 3 m/S 723 mmHg 58%
    05:00 +4°C° 0 mm 3 m/S 723 mmHg 60%
    06:00 +4°C° 0 mm 3 m/S 723 mmHg 62%
    07:00 +6°C° 0 mm 4 m/S 724 mmHg 55%
    08:00 +8°C° 0 mm 4 m/S 724 mmHg 49%
    09:00 +10°C° 0 mm 5 m/S 724 mmHg 42%
    10:00 +13°C° 0 mm 4 m/S 724 mmHg 37%
    11:00 +17°C° 0 mm 4 m/S 724 mmHg 32%
    12:00 +19°C° 0 mm 4 m/S 723 mmHg 27%
    13:00 +20°C° 0 mm 3 m/S 723 mmHg 26%
    14:00 +21°C° 0 mm 2 m/S 722 mmHg 24%
    15:00 +21°C° 0 mm 2 m/S 722 mmHg 23%
    16:00 +19°C° 0 mm 2 m/S 722 mmHg 27%
    17:00 +17°C° 0 mm 2 m/S 722 mmHg 31%
    18:00 +13°C° 0 mm 3 m/S 722 mmHg 35%
    19:00 +13°C° 0 mm 3 m/S 722 mmHg 36%
    20:00 +12°C° 0 mm 3 m/S 722 mmHg 38%
    21:00 +11°C° 0 mm 3 m/S 723 mmHg 39%
    22:00 +11°C° 0 mm 3 m/S 723 mmHg 41%
    23:00 +10°C° 0 mm 3 m/S 723 mmHg 44%

    10 Juni, Mittwoch

    Zeit Temperatur Niederschläge Wind Luftdruck Luftfeuchtigkeit
    00:00 +9°C° 0 mm 3 m/S 723 mmHg 46%
    01:00 +8°C° 0 mm 3 m/S 722 mmHg 49%
    02:00 +8°C° 0 mm 3 m/S 722 mmHg 51%
    03:00 +7°C° 0 mm 3 m/S 722 mmHg 54%
    04:00 +7°C° 0 mm 3 m/S 722 mmHg 58%
    05:00 +5°C° 0 mm 3 m/S 723 mmHg 62%
    06:00 +5°C° 0 mm 3 m/S 723 mmHg 66%
    07:00 +8°C° 0 mm 3 m/S 723 mmHg 60%
    08:00 +10°C° 0 mm 3 m/S 724 mmHg 54%
    09:00 +12°C° 0 mm 3 m/S 724 mmHg 48%
    10:00 +14°C° 0 mm 3 m/S 724 mmHg 42%
    11:00 +17°C° 0 mm 3 m/S 723 mmHg 36%
    12:00 +20°C° 0 mm 2 m/S 723 mmHg 30%
    13:00 +20°C° 0 mm 2 m/S 723 mmHg 27%
    14:00 +21°C° 0 mm 2 m/S 722 mmHg 24%
    15:00 +23°C° 0 mm 2 m/S 721 mmHg 21%
    16:00 +20°C° 0 mm 2 m/S 721 mmHg 25%
    17:00 +17°C° 0 mm 3 m/S 721 mmHg 28%
    18:00 +14°C° 0 mm 3 m/S 721 mmHg 32%
    19:00 +13°C° 0 mm 3 m/S 721 mmHg 33%
    20:00 +13°C° 0 mm 3 m/S 722 mmHg 35%
    21:00 +12°C° 0 mm 3 m/S 722 mmHg 37%
    22:00 +11°C° 0 mm 3 m/S 722 mmHg 41%
    23:00 +10°C° 0 mm 3 m/S 722 mmHg 44%

    11 Juni, Donnerstag

    Zeit Temperatur Niederschläge Wind Luftdruck Luftfeuchtigkeit
    00:00 +9°C° 0 mm 3 m/S 722 mmHg 47%
    01:00 +9°C° 0 mm 3 m/S 722 mmHg 49%
    02:00 +8°C° 0 mm 3 m/S 721 mmHg 51%
    03:00 +7°C° 0 mm 3 m/S 721 mmHg 53%
    04:00 +7°C° 0 mm 3 m/S 721 mmHg 56%
    05:00 +5°C° 0 mm 3 m/S 722 mmHg 58%
    06:00 +5°C° 0 mm 3 m/S 722 mmHg 61%
    07:00 +8°C° 0 mm 3 m/S 722 mmHg 54%
    08:00 +10°C° 0 mm 3 m/S 722 mmHg 48%
    09:00 +12°C° 0 mm 3 m/S 723 mmHg 41%
    10:00 +14°C° 0 mm 3 m/S 722 mmHg 36%
    11:00 +17°C° 0 mm 3 m/S 722 mmHg 30%
    12:00 +20°C° 0 mm 4 m/S 722 mmHg 25%
    13:00 +20°C° 0 mm 3 m/S 721 mmHg 23%
    14:00 +21°C° 0 mm 3 m/S 720 mmHg 21%
    15:00 +23°C° 0 mm 2 m/S 720 mmHg 19%
    16:00 +19°C° 0 mm 2 m/S 719 mmHg 24%
    17:00 +17°C° 0 mm 2 m/S 719 mmHg 29%
    18:00 +13°C° 0 mm 3 m/S 719 mmHg 34%
    19:00 +12°C° 0 mm 3 m/S 719 mmHg 35%
    20:00 +11°C° 0 mm 3 m/S 719 mmHg 35%
    21:00 +10°C° 0 mm 3 m/S 720 mmHg 36%
    22:00 +10°C° 0 mm 3 m/S 720 mmHg 38%
    23:00 +9°C° 0 mm 3 m/S 720 mmHg 39%

    12 Juni, Freitag

    Zeit Temperatur Niederschläge Wind Luftdruck Luftfeuchtigkeit
    00:00 +8°C° 0 mm 3 m/S 720 mmHg 41%
    01:00 +7°C° 0 mm 3 m/S 720 mmHg 42%
    02:00 +7°C° 0 mm 3 m/S 719 mmHg 44%
    03:00 +5°C° 0 mm 3 m/S 719 mmHg 45%
    04:00 +5°C° 0 mm 3 m/S 719 mmHg 47%
    05:00 +5°C° 0 mm 2 m/S 719 mmHg 49%
    06:00 +5°C° 0 mm 2 m/S 719 mmHg 51%
    07:00 +7°C° 0 mm 2 m/S 719 mmHg 44%
    08:00 +10°C° 0 mm 2 m/S 720 mmHg 38%
    09:00 +13°C° 0 mm 2 m/S 720 mmHg 32%
    10:00 +16°C° 0 mm 2 m/S 719 mmHg 29%
    11:00 +18°C° 0 mm 3 m/S 719 mmHg 25%
    12:00 +21°C° 0 mm 3 m/S 718 mmHg 21%
    13:00 +22°C° 0 mm 3 m/S 717 mmHg 20%
    14:00 +22°C° 0 mm 4 m/S 717 mmHg 20%
    15:00 +23°C° 0 mm 4 m/S 716 mmHg 19%
    16:00 +20°C° 0 mm 3 m/S 716 mmHg 24%
    17:00 +18°C° 0 mm 3 m/S 715 mmHg 30%
    18:00 +15°C° 0 mm 2 m/S 715 mmHg 35%
    19:00 +14°C° 0 mm 2 m/S 715 mmHg 38%
    20:00 +14°C° 0 mm 2 m/S 716 mmHg 42%
    21:00 +13°C° 0 mm 2 m/S 716 mmHg 45%
    22:00 +13°C° 0 mm 2 m/S 716 mmHg 44%
    23:00 +11°C° 0 mm 3 m/S 715 mmHg 43%
    Mehr zeigen